DateTimeUTC,F1_A11,F1_S11,BsB_S11,BsG_S11,BsR_S11,BbsB_S11,BbsG_S11,BbsR_S11,BaB_A11,BaG_A11,BaR_A11,Tu_S11,T_S11,Uu_S11,U_S11,P_S11,T1_A11
2021-09-19T05:00:00Z,00000200,21000000,,,,,,,0000.30,0000.08,0000.12,18.0,25.4,,00.0,0655.9,31.0
2021-09-19T05:01:00Z,00000200,21000000,,,,,,,0000.19,0000.01,0000.12,18.0,25.4,,00.0,0655.9,31.0
2021-09-19T05:02:00Z,00000200,21000000,,,,,,,-000.07,0000.63,0000.07,18.0,25.4,,00.0,0655.9,31.0
2021-09-19T05:03:00Z,00000200,61000000,,,,,,,0000.97,0000.71,0000.82,18.0,25.4,,00.0,0655.9,31.0
2021-09-19T05:04:00Z,00000200,41000000,0001.95,0001.75,0000.92,0000.43,0000.37,0000.29,0000.48,0000.44,0000.39,18.4,25.3,,00.0,0656.8,31.1
2021-09-19T05:05:00Z,00000200,01000000,0002.04,0001.33,0000.86,0000.45,0000.23,0000.08,0000.91,0000.67,0000.44,18.6,25.3,,00.0,0656.9,31.1
2021-09-19T05:06:00Z,00000200,01000000,0001.94,0001.50,0000.89,0000.56,0000.34,-000.07,0000.31,0000.34,0000.41,18.7,25.3,,00.0,0656.9,31.1
2021-09-19T05:07:00Z,00000200,01000000,0001.88,0002.13,0000.92,0000.52,0000.29,0000.49,0000.68,0000.69,0000.35,18.8,25.4,,00.0,0656.9,31.1
2021-09-19T05:08:00Z,00000200,01000000,0001.87,0001.53,0001.33,0000.87,0000.06,0000.26,0000.97,0000.52,0000.73,18.8,25.4,,00.0,0656.9,31.1
2021-09-19T05:09:00Z,00000200,01000000,0002.64,0001.73,0000.61,0000.11,-000.15,0000.39,0000.43,0000.54,0000.13,18.8,25.4,,00.0,0656.9,31.1
2021-09-19T05:10:00Z,00000200,01000000,0002.00,0001.46,0000.82,0000.49,0000.44,0000.04,-000.02,-000.10,-000.12,18.7,25.3,,00.0,0656.9,31.0
2021-09-19T05:11:00Z,00000200,01000000,0001.87,0001.51,0001.20,0000.30,0000.01,0000.46,0000.15,0000.20,0000.39,18.6,25.3,,00.0,0656.9,31.0
2021-09-19T05:12:00Z,00000200,01000000,0001.50,0001.50,0000.77,-000.04,0000.11,0000.00,0000.47,0000.15,0000.24,18.5,25.2,,00.0,0656.9,31.0
2021-09-19T05:13:00Z,00000200,01000000,0002.02,0001.63,0001.02,0000.18,0000.28,0000.30,0000.93,0000.71,0000.24,18.4,25.2,,00.0,0656.9,31.0
2021-09-19T05:14:00Z,00000200,01000000,0002.04,0001.73,0001.02,0000.75,0000.28,0000.02,0000.17,0000.37,0000.46,18.4,25.1,,00.0,0656.9,31.0
2021-09-19T05:15:00Z,00000200,01000000,0002.17,0001.70,0000.60,0000.94,0000.54,-000.15,-000.02,0000.25,0000.51,18.3,25.1,,00.0,0656.9,31.0
2021-09-19T05:16:00Z,00000200,01000000,0002.15,0001.92,0001.02,0000.45,0000.14,0000.67,0000.22,0000.06,-000.17,18.3,25.1,,00.0,0656.9,31.0
2021-09-19T05:17:00Z,00000200,01000000,0002.13,0001.94,0000.99,0000.16,0000.32,0000.19,-000.03,0000.14,-000.05,18.4,25.1,,00.0,0656.9,31.0
2021-09-19T05:18:00Z,00000200,01000000,0002.31,0001.52,0000.86,0000.39,-000.08,-000.12,0000.56,0000.19,0000.56,18.5,25.2,,00.0,0656.9,31.0
2021-09-19T05:19:00Z,00000200,01000000,0002.00,0001.34,0000.96,-000.02,0000.03,0000.03,0000.57,0000.45,0000.43,18.5,25.2,,00.0,0656.9,31.0
2021-09-19T05:20:00Z,00000200,01000000,0001.42,0001.74,0000.97,0000.50,0000.01,0000.39,0001.48,0001.70,0000.79,18.6,25.3,,00.0,0656.9,31.1
2021-09-19T05:21:00Z,00000200,01000000,0001.68,0001.06,0001.07,0000.86,0000.43,0000.36,0002.11,0001.55,0001.32,18.7,25.3,,00.0,0656.9,31.1
2021-09-19T05:22:00Z,00000200,01000000,0002.09,0001.78,0000.73,0000.11,0000.14,0000.37,0001.33,0001.75,0001.20,18.8,25.3,,00.0,0656.9,31.1
2021-09-19T05:23:00Z,00000200,01000000,0002.20,0001.69,0000.97,0001.07,0000.02,-000.13,0000.94,0000.45,0000.54,18.8,25.4,,00.0,0656.9,31.1
2021-09-19T05:24:00Z,00000200,01000000,0002.08,0002.00,0000.82,0000.44,0000.18,0000.24,0000.86,0001.09,0000.48,18.7,25.3,,00.0,0656.9,31.1
2021-09-19T05:25:00Z,00000200,01000000,0002.57,0001.59,0000.89,0000.73,0000.23,0000.06,0001.37,0000.91,0001.05,18.6,25.3,,00.0,0656.9,31.0
2021-09-19T05:26:00Z,00000200,01000000,0001.97,0001.72,0000.73,0000.12,-000.03,0000.00,0001.74,0001.33,0000.89,18.6,25.2,,00.0,0656.9,31.0
2021-09-19T05:27:00Z,00000200,01000000,0002.36,0001.15,0001.07,0000.64,0000.35,0000.30,0001.09,0001.12,0000.68,18.5,25.2,,00.0,0656.8,31.0
2021-09-19T05:28:00Z,00000200,01000000,0003.00,0001.39,0000.64,0000.30,0000.19,-000.27,0000.94,0000.46,0000.83,18.4,25.1,,00.0,0656.8,31.0
2021-09-19T05:29:00Z,00000200,01000000,0002.32,0001.36,0000.49,0000.95,0000.12,0000.32,-000.57,-000.10,-000.32,18.3,25.1,,00.0,0656.8,31.0
2021-09-19T05:30:00Z,00000200,01000000,0002.09,0001.64,0001.00,0000.10,0000.20,0000.18,-001.36,-001.04,-000.73,18.3,25.1,,00.0,0656.8,31.0
2021-09-19T05:31:00Z,00000200,01000000,0001.80,0001.27,0000.97,-000.39,0000.11,0000.08,-000.32,-000.85,-000.48,18.3,25.0,,00.0,0656.8,31.0
2021-09-19T05:32:00Z,00000200,01000000,0002.31,0001.19,0000.77,0000.76,-000.14,0000.16,0000.27,0000.70,0000.25,18.4,25.1,,00.0,0656.8,31.0
2021-09-19T05:33:00Z,00000200,01000000,0002.02,0001.70,0000.87,0000.58,0000.25,0000.02,-000.69,-000.77,-000.31,18.5,25.1,,00.0,0656.8,31.0
2021-09-19T05:34:00Z,00000200,01000000,0001.88,0001.47,0000.76,0000.85,-000.04,0000.38,0001.66,0001.35,0001.11,18.6,25.2,,00.0,0656.8,31.0
2021-09-19T05:35:00Z,00000200,01000000,0002.03,0001.41,0001.01,0000.51,-000.04,0000.15,0000.57,0001.02,0000.48,18.7,25.2,,00.0,0656.8,31.1
2021-09-19T05:36:00Z,00000200,01000000,0002.24,0001.39,0000.67,0000.34,0000.21,0000.18,0001.16,0001.40,0001.14,18.7,25.3,,00.0,0656.8,31.1
2021-09-19T05:37:00Z,00000200,01000000,0001.81,0001.36,0000.76,0000.30,0000.46,-000.10,0001.43,0000.50,0000.53,18.8,25.3,,00.0,0656.8,31.1
2021-09-19T05:38:00Z,00000200,01000000,0001.29,0001.79,0000.88,0000.27,0000.06,0000.33,0001.56,0001.67,0001.37,18.9,25.4,,00.0,0656.8,31.1
2021-09-19T05:39:00Z,00000200,01000000,0002.36,0001.41,0000.92,0001.23,0000.05,0000.32,0001.33,0001.28,0000.77,19.0,25.4,,00.0,0656.9,31.1
2021-09-19T05:40:00Z,00000200,01000000,0001.75,0001.64,0000.78,0000.39,0000.33,0000.20,0001.19,0000.77,0000.53,19.0,25.4,,00.0,0656.9,31.1
2021-09-19T05:41:00Z,00000200,01000000,0002.61,0001.87,0001.02,-000.03,0000.27,0000.37,0000.36,0000.81,0000.53,18.9,25.4,,00.0,0656.9,31.1
2021-09-19T05:42:00Z,00000200,01000000,0002.34,0001.52,0000.75,0000.78,0000.28,0000.23,0000.41,0000.20,0000.20,18.9,25.3,,00.0,0656.9,31.0
2021-09-19T05:43:00Z,00000200,01000000,0002.50,0001.79,0000.62,0000.83,0000.52,-000.06,-000.36,-000.60,-000.41,18.8,25.3,,00.0,0656.9,31.0
2021-09-19T05:44:00Z,00000200,01000000,0002.17,0001.49,0001.22,0000.35,0000.36,0000.57,-000.27,0000.03,-000.01,18.7,25.3,,00.0,0656.9,31.0
2021-09-19T05:45:00Z,00000200,01000000,0001.89,0001.60,0001.11,0000.80,0000.16,0000.19,0000.88,0000.67,0000.56,18.6,25.2,,00.0,0656.9,31.0
2021-09-19T05:46:00Z,00000200,01000000,0001.70,0001.63,0000.71,0000.33,0000.32,0000.07,0001.17,0000.89,0000.47,18.7,25.2,,00.0,0656.9,31.0
2021-09-19T05:47:00Z,00000200,01000000,0001.79,0001.99,0000.75,0000.52,0000.28,0000.19,0000.93,0000.93,0000.90,18.7,25.2,,00.0,0656.9,31.0
2021-09-19T05:48:00Z,00000200,01000000,0001.99,0001.49,0001.01,-000.18,0000.05,0000.12,0000.89,0001.08,0001.09,18.8,25.3,,00.0,0656.9,31.0
2021-09-19T05:49:00Z,00000200,01000000,0002.31,0001.80,0001.07,0000.53,0000.17,0000.21,0000.95,0000.73,0000.47,18.9,25.3,,00.0,0656.9,31.1
2021-09-19T05:50:00Z,00000200,01000000,0003.11,0001.69,0000.95,0000.18,0000.25,0000.22,0000.81,0000.62,0000.48,19.0,25.4,,00.0,0656.9,31.1
2021-09-19T05:51:00Z,00000200,01000000,0002.39,0002.01,0000.71,0000.64,0000.15,-000.23,0000.76,0000.58,0000.21,19.0,25.4,,00.0,0656.9,31.1
2021-09-19T05:52:00Z,00000200,01000000,0002.50,0001.74,0001.01,0001.11,0000.27,0000.11,0000.52,0000.66,0000.65,19.1,25.5,,00.0,0656.9,31.1
2021-09-19T05:53:00Z,00000200,01000000,0001.87,0002.10,0001.08,0000.41,0000.25,0000.28,-000.36,0000.17,0000.15,19.1,25.5,,00.0,0656.9,31.1
2021-09-19T05:54:00Z,00000200,01000000,0002.80,0001.70,0000.67,0000.90,0000.17,-000.11,0000.73,0000.06,0000.23,19.0,25.5,,00.0,0656.9,31.1
2021-09-19T05:55:00Z,00000200,01000000,0001.90,0001.73,0000.92,0000.60,0000.13,-000.14,0000.67,0000.58,0000.23,18.9,25.4,,00.0,0656.9,31.0
2021-09-19T05:56:00Z,00000200,01000000,0001.98,0001.94,0000.95,0000.92,0000.28,0000.23,0000.93,0000.79,0000.68,18.8,25.4,,00.0,0656.9,31.0
2021-09-19T05:57:00Z,00000200,41000000,,,,,,,-001.86,-001.53,-001.14,18.8,25.4,,00.0,0656.8,31.0
2021-09-19T05:58:00Z,00000200,61000000,,,,,,,0000.86,0000.90,0000.55,18.4,25.4,,00.0,0655.9,31.0
2021-09-19T05:59:00Z,00000200,21000000,,,,,,,0000.23,0000.01,0000.35,18.3,25.5,,00.0,0655.9,31.0
